Time,TemperatureF,DewpointF,PressureIn,WindDirection,WindDirectionDegrees,WindSpeedMPH,WindSpeedGustMPH,Humidity,HourlyPrecipIn,Conditions,Clouds,dailyrainin,SoftwareType,DateUTC
2013-11-29 08:43:00,47.6,45.7,30.38,ENE,68,2.0,2.0,93,0.00,,,0.00,Wunderground v.1.15,2013-11-29 08:43:00,
2013-11-29 08:45:00,47.6,45.7,30.38,ESE,121,2.0,2.0,93,0.00,,,0.00,Wunderground v.1.15,2013-11-29 08:45:00,
2013-11-29 08:46:00,47.7,45.8,30.38,WSW,238,2.0,5.0,93,0.00,,,0.00,Wunderground v.1.15,2013-11-29 08:46:00,
2013-11-29 08:47:00,47.6,46.0,30.38,North,358,2.0,5.0,94,0.00,,,0.00,Wunderground v.1.15,2013-11-29 08:47:00,
2013-11-29 08:52:00,47.7,46.1,30.39,East,94,3.0,5.0,94,0.00,,,0.00,Wunderground v.1.15,2013-11-29 08:52:00,
2013-11-29 08:57:00,47.7,46.1,30.39,NE,35,3.0,4.0,94,0.00,,,0.00,Wunderground v.1.15,2013-11-29 08:57:00,
2013-11-29 08:59:00,47.6,46.0,30.39,NE,51,3.0,6.0,94,0.00,,,0.00,Wunderground v.1.15,2013-11-29 08:59:00,
2013-11-29 09:05:00,47.5,45.6,30.39,ESE,102,4.0,6.0,93,0.00,,,0.00,Wunderground v.1.15,2013-11-29 09:05:00,
2013-11-29 09:11:00,47.5,45.3,30.39,East,88,4.0,4.0,92,0.00,,,0.00,Wunderground v.1.15,2013-11-29 09:11:00,
2013-11-29 09:17:00,47.5,45.0,30.39,East,88,3.0,4.0,91,0.00,,,0.00,Wunderground v.1.15,2013-11-29 09:17:00,
2013-11-29 09:23:00,47.5,44.4,30.39,ENE,68,3.0,5.0,89,0.00,,,0.00,Wunderground v.1.15,2013-11-29 09:23:00,
2013-11-29 09:28:00,47.5,44.4,30.40,East,96,3.0,7.0,89,0.00,,,0.00,Wunderground v.1.15,2013-11-29 09:28:00,
2013-11-29 09:33:00,47.5,44.1,30.40,ESE,111,3.0,4.0,88,0.00,,,0.00,Wunderground v.1.15,2013-11-29 09:33:00,
2013-11-29 09:39:00,47.4,44.0,30.40,East,84,3.0,4.0,88,0.00,,,0.00,Wunderground v.1.15,2013-11-29 09:39:00,
2013-11-29 09:44:00,47.3,43.6,30.40,ENE,61,3.0,3.0,87,0.00,,,0.00,Wunderground v.1.15,2013-11-29 09:44:00,
2013-11-29 09:49:00,47.2,43.5,30.40,ENE,78,2.0,6.0,87,0.00,,,0.00,Wunderground v.1.15,2013-11-29 09:49:00,
2013-11-29 09:55:00,47.1,43.4,30.40,NE,54,2.0,2.0,87,0.00,,,0.00,Wunderground v.1.15,2013-11-29 09:55:00,
2013-11-29 10:01:00,47.1,43.4,30.40,East,84,2.0,3.0,87,0.00,,,0.00,Wunderground v.1.15,2013-11-29 10:01:00,
2013-11-29 10:06:00,47.1,43.7,30.40,ESE,110,2.0,6.0,88,0.00,,,0.00,Wunderground v.1.15,2013-11-29 10:06:00,
2013-11-29 10:12:00,47.1,43.7,30.40,SE,131,2.0,6.0,88,0.00,,,0.00,Wunderground v.1.15,2013-11-29 10:12:00,
2013-11-29 10:17:00,47.1,43.7,30.40,East,97,2.0,6.0,88,0.00,,,0.00,Wunderground v.1.15,2013-11-29 10:17:00,
2013-11-29 10:23:00,47.1,43.7,30.40,ESE,106,1.0,6.0,88,0.00,,,0.00,Wunderground v.1.15,2013-11-29 10:23:00,
2013-11-29 10:28:00,47.1,43.7,30.40,ESE,113,1.0,6.0,88,0.00,,,0.00,Wunderground v.1.15,2013-11-29 10:28:00,
2013-11-29 10:34:00,47.1,43.7,30.41,East,89,1.0,6.0,88,0.00,,,0.00,Wunderground v.1.15,2013-11-29 10:34:00,
2013-11-29 10:39:00,47.1,43.7,30.40,ESE,123,2.0,6.0,88,0.00,,,0.00,Wunderground v.1.15,2013-11-29 10:39:00,
2013-11-29 10:45:00,47.1,43.4,30.40,ESE,117,2.0,6.0,87,0.00,,,0.00,Wunderground v.1.15,2013-11-29 10:45:00,
2013-11-29 10:51:00,47.2,43.2,30.40,ENE,57,2.0,6.0,86,0.00,,,0.00,Wunderground v.1.15,2013-11-29 10:51:00,
2013-11-29 10:57:00,47.2,42.9,30.40,East,101,3.0,6.0,85,0.00,,,0.00,Wunderground v.1.15,2013-11-29 10:57:00,
2013-11-29 11:03:00,47.2,42.9,30.41,ESE,103,3.0,6.0,85,0.00,,,0.00,Wunderground v.1.15,2013-11-29 11:03:00,
2013-11-29 11:08:00,47.3,42.7,30.41,ESE,108,2.0,6.0,84,0.00,,,0.00,Wunderground v.1.15,2013-11-29 11:08:00,
2013-11-29 11:14:00,47.3,42.7,30.41,ESE,115,2.0,6.0,84,0.00,,,0.00,Wunderground v.1.15,2013-11-29 11:14:00,
2013-11-29 11:20:00,47.2,42.3,30.40,East,89,3.0,6.0,83,0.00,,,0.00,Wunderground v.1.15,2013-11-29 11:20:00,
2013-11-29 11:25:00,47.2,42.3,30.40,East,83,3.0,6.0,83,0.00,,,0.00,Wunderground v.1.15,2013-11-29 11:25:00,
2013-11-29 11:31:00,47.2,42.3,30.40,SSE,150,3.0,6.0,83,0.00,,,0.00,Wunderground v.1.15,2013-11-29 11:31:00,
2013-11-29 11:37:00,47.2,42.0,30.39,SSE,160,2.0,6.0,82,0.00,,,0.00,Wunderground v.1.15,2013-11-29 11:37:00,
2013-11-29 11:42:00,47.2,42.0,30.40,East,92,2.0,6.0,82,0.00,,,0.00,Wunderground v.1.15,2013-11-29 11:42:00,
2013-11-29 11:48:00,47.2,42.0,30.39,ENE,77,2.0,8.0,82,0.00,,,0.00,Wunderground v.1.15,2013-11-29 11:48:00,
2013-11-29 11:54:00,47.2,42.0,30.39,SE,144,2.0,6.0,82,0.00,,,0.00,Wunderground v.1.15,2013-11-29 11:54:00,
2013-11-29 11:59:00,47.3,42.1,30.39,East,82,2.0,6.0,82,0.00,,,0.00,Wunderground v.1.15,2013-11-29 11:59:00,
2013-11-29 12:05:00,47.2,42.0,30.39,North,349,2.0,6.0,82,0.00,,,0.00,Wunderground v.1.15,2013-11-29 12:05:00,
2013-11-29 12:11:00,47.2,42.0,30.38,East,99,2.0,3.0,82,0.00,,,0.00,Wunderground v.1.15,2013-11-29 12:11:00,
2013-11-29 12:17:00,47.2,42.0,30.39,ENE,70,2.0,6.0,82,0.00,,,0.00,Wunderground v.1.15,2013-11-29 12:17:00,
2013-11-29 12:23:00,47.2,42.0,30.39,ENE,70,2.0,6.0,82,0.00,,,0.00,Wunderground v.1.15,2013-11-29 12:23:00,
2013-11-29 12:29:00,47.3,42.1,30.39,ESE,120,2.0,6.0,82,0.00,,,0.00,Wunderground v.1.15,2013-11-29 12:29:00,
2013-11-29 12:35:00,47.3,42.1,30.39,SSE,163,2.0,6.0,82,0.00,,,0.00,Wunderground v.1.15,2013-11-29 12:35:00,
2013-11-29 12:40:00,47.3,42.1,30.39,SSE,160,2.0,2.0,82,0.00,,,0.00,Wunderground v.1.15,2013-11-29 12:40:00,
2013-11-29 12:45:00,47.3,42.1,30.39,East,90,2.0,6.0,82,0.00,,,0.00,Wunderground v.1.15,2013-11-29 12:45:00,
2013-11-29 12:51:00,47.3,42.1,30.39,SE,129,2.0,6.0,82,0.00,,,0.00,Wunderground v.1.15,2013-11-29 12:51:00,
2013-11-29 12:57:00,47.2,42.3,30.38,SE,124,2.0,6.0,83,0.00,,,0.00,Wunderground v.1.15,2013-11-29 12:57:00,
2013-11-29 13:03:00,47.3,42.4,30.38,ESE,115,2.0,6.0,83,0.00,,,0.00,Wunderground v.1.15,2013-11-29 13:03:00,
2013-11-29 13:09:00,47.5,42.3,30.38,NNE,27,2.0,6.0,82,0.00,,,0.00,Wunderground v.1.15,2013-11-29 13:09:00,
2013-11-29 13:15:00,47.6,42.4,30.37,SSE,167,2.0,6.0,82,0.00,,,0.00,Wunderground v.1.15,2013-11-29 13:15:00,
2013-11-29 13:21:00,47.7,42.5,30.37,ESE,110,2.0,6.0,82,0.00,,,0.00,Wunderground v.1.15,2013-11-29 13:21:00,
2013-11-29 13:26:00,47.7,42.5,30.37,SW,228,2.0,6.0,82,0.00,,,0.00,Wunderground v.1.15,2013-11-29 13:26:00,
2013-11-29 13:32:00,47.7,42.5,30.37,SE,141,2.0,6.0,82,0.00,,,0.00,Wunderground v.1.15,2013-11-29 13:32:00,
2013-11-29 13:38:00,47.6,42.4,30.36,ENE,67,2.0,6.0,82,0.00,,,0.00,Wunderground v.1.15,2013-11-29 13:38:00,
2013-11-29 13:43:00,47.6,42.4,30.36,East,99,2.0,6.0,82,0.00,,,0.00,Wunderground v.1.15,2013-11-29 13:43:00,
2013-11-29 13:49:00,47.5,42.3,30.37,SE,127,2.0,6.0,82,0.00,,,0.00,Wunderground v.1.15,2013-11-29 13:49:00,
2013-11-29 13:54:00,47.5,42.3,30.36,ESE,120,2.0,6.0,82,0.00,,,0.00,Wunderground v.1.15,2013-11-29 13:54:00,
2013-11-29 14:00:00,47.5,42.3,30.36,South,186,2.0,2.0,82,0.00,,,0.00,Wunderground v.1.15,2013-11-29 14:00:00,
2013-11-29 14:06:00,47.4,42.2,30.36,East,84,3.0,6.0,82,0.00,,,0.00,Wunderground v.1.15,2013-11-29 14:06:00,
2013-11-29 14:12:00,47.4,42.2,30.36,East,92,3.0,6.0,82,0.00,,,0.00,Wunderground v.1.15,2013-11-29 14:12:00,
2013-11-29 14:18:00,47.4,42.5,30.35,SSE,149,3.0,6.0,83,0.00,,,0.00,Wunderground v.1.15,2013-11-29 14:18:00,
2013-11-29 14:23:00,47.4,42.5,30.36,ENE,70,2.0,6.0,83,0.00,,,0.00,Wunderground v.1.15,2013-11-29 14:23:00,
2013-11-29 14:32:00,47.4,42.5,30.35,East,101,3.0,3.0,83,0.00,,,0.00,Wunderground v.1.15,2013-11-29 14:32:00,
2013-11-29 14:39:00,47.4,42.2,30.35,ENE,58,3.0,6.0,82,0.00,,,0.00,Wunderground v.1.15,2013-11-29 14:39:00,
2013-11-29 14:45:00,47.4,42.2,30.36,NE,46,3.0,3.0,82,0.00,,,0.00,Wunderground v.1.15,2013-11-29 14:45:00,
2013-11-29 14:50:00,47.4,42.2,30.35,ESE,115,3.0,3.0,82,0.00,,,0.00,Wunderground v.1.15,2013-11-29 14:50:00,
2013-11-29 14:56:00,47.4,42.2,30.35,East,96,3.0,4.0,82,0.00,,,0.00,Wunderground v.1.15,2013-11-29 14:56:00,
2013-11-29 15:01:00,47.4,41.9,30.35,West,276,3.0,5.0,81,0.00,,,0.00,Wunderground v.1.15,2013-11-29 15:01:00,
2013-11-29 15:06:00,47.4,41.9,30.35,South,169,2.0,5.0,81,0.00,,,0.00,Wunderground v.1.15,2013-11-29 15:06:00,
2013-11-29 15:12:00,47.4,41.9,30.35,ESE,102,2.0,2.0,81,0.00,,,0.00,Wunderground v.1.15,2013-11-29 15:12:00,
2013-11-29 15:17:00,47.4,41.9,30.35,SSW,200,2.0,2.0,81,0.00,,,0.00,Wunderground v.1.15,2013-11-29 15:17:00,
2013-11-29 15:23:00,47.3,41.8,30.35,East,79,2.0,4.0,81,0.00,,,0.00,Wunderground v.1.15,2013-11-29 15:23:00,
2013-11-29 15:28:00,47.1,41.2,30.35,East,96,3.0,5.0,80,0.00,,,0.00,Wunderground v.1.15,2013-11-29 15:28:00,
2013-11-29 15:34:00,47.1,41.2,30.35,ESE,106,3.0,8.0,80,0.00,,,0.00,Wunderground v.1.15,2013-11-29 15:34:00,
2013-11-29 15:39:00,47.0,40.8,30.35,ENE,70,3.0,8.0,79,0.00,,,0.00,Wunderground v.1.15,2013-11-29 15:39:00,
2013-11-29 15:44:00,46.9,40.7,30.35,SE,139,3.0,8.0,79,0.00,,,0.00,Wunderground v.1.15,2013-11-29 15:44:00,
2013-11-29 15:50:00,46.8,40.6,30.35,East,89,3.0,3.0,79,0.00,,,0.00,Wunderground v.1.15,2013-11-29 15:50:00,
2013-11-29 15:55:00,46.8,40.6,30.35,NNE,26,3.0,8.0,79,0.00,,,0.00,Wunderground v.1.15,2013-11-29 15:55:00,
2013-11-29 16:00:00,46.9,40.7,30.36,ENE,64,3.0,3.0,79,0.00,,,0.00,Wunderground v.1.15,2013-11-29 16:00:00,
2013-11-29 16:06:00,46.8,41.0,30.36,ESE,110,3.0,8.0,80,0.00,,,0.00,Wunderground v.1.15,2013-11-29 16:06:00,
2013-11-29 16:12:00,46.6,41.1,30.36,ESE,120,2.0,8.0,81,0.00,,,0.00,Wunderground v.1.15,2013-11-29 16:12:00,
2013-11-29 16:18:00,46.4,41.2,30.36,South,172,2.0,8.0,82,0.00,,,0.00,Wunderground v.1.15,2013-11-29 16:18:00,
2013-11-29 16:23:00,46.3,41.1,30.37,ENE,75,1.0,8.0,82,0.00,,,0.00,Wunderground v.1.15,2013-11-29 16:23:00,
2013-11-29 16:28:00,46.2,41.0,30.37,NE,46,1.0,8.0,82,0.00,,,0.00,Wunderground v.1.15,2013-11-29 16:28:00,
2013-11-29 16:33:00,46.1,41.2,30.37,NNE,26,2.0,8.0,83,0.00,,,0.00,Wunderground v.1.15,2013-11-29 16:33:00,
2013-11-29 16:39:00,45.9,41.0,30.38,East,96,2.0,8.0,83,0.00,,,0.00,Wunderground v.1.15,2013-11-29 16:39:00,
2013-11-29 16:44:00,45.8,40.9,30.37,ENE,67,2.0,8.0,83,0.00,,,0.00,Wunderground v.1.15,2013-11-29 16:44:00,
2013-11-29 16:50:00,45.7,40.8,30.37,East,91,2.0,2.0,83,0.00,,,0.00,Wunderground v.1.15,2013-11-29 16:50:00,
2013-11-29 16:56:00,45.7,40.8,30.38,ENE,74,2.0,8.0,83,0.00,,,0.00,Wunderground v.1.15,2013-11-29 16:56:00,
2013-11-29 17:02:00,45.7,40.8,30.38,SE,138,2.0,8.0,83,0.00,,,0.00,Wunderground v.1.15,2013-11-29 17:02:00,
2013-11-29 17:07:00,45.7,40.5,30.38,SE,144,2.0,8.0,82,0.00,,,0.00,Wunderground v.1.15,2013-11-29 17:07:00,
2013-11-29 17:12:00,45.8,40.6,30.38,ESE,107,3.0,8.0,82,0.00,,,0.00,Wunderground v.1.15,2013-11-29 17:12:00,
2013-11-29 17:19:00,45.8,40.6,30.38,ESE,103,3.0,8.0,82,0.00,,,0.00,Wunderground v.1.15,2013-11-29 17:19:00,
2013-11-29 17:24:00,45.8,40.6,30.38,SSE,162,3.0,8.0,82,0.00,,,0.00,Wunderground v.1.15,2013-11-29 17:24:00,
2013-11-29 17:30:00,45.7,40.8,30.39,SE,138,3.0,3.0,83,0.00,,,0.00,Wunderground v.1.15,2013-11-29 17:30:00,
2013-11-29 17:36:00,45.5,40.6,30.39,SE,124,3.0,8.0,83,0.00,,,0.00,Wunderground v.1.15,2013-11-29 17:36:00,
2013-11-29 17:41:00,45.3,40.7,30.38,ENE,66,3.0,8.0,84,0.00,,,0.00,Wunderground v.1.15,2013-11-29 17:41:00,
2013-11-29 17:46:00,45.2,40.7,30.38,NE,53,3.0,8.0,84,0.00,,,0.00,Wunderground v.1.15,2013-11-29 17:46:00,
2013-11-29 17:52:00,45.2,41.0,30.39,East,83,2.0,8.0,85,0.00,,,0.00,Wunderground v.1.15,2013-11-29 17:52:00,
2013-11-29 17:57:00,45.1,40.9,30.38,East,98,2.0,8.0,85,0.00,,,0.00,Wunderground v.1.15,2013-11-29 17:57:00,
2013-11-29 18:02:00,45.0,41.1,30.38,East,82,2.0,8.0,86,0.00,,,0.00,Wunderground v.1.15,2013-11-29 18:02:00,
2013-11-29 18:08:00,45.0,41.1,30.38,ESE,115,2.0,8.0,86,0.00,,,0.00,Wunderground v.1.15,2013-11-29 18:08:00,
2013-11-29 18:13:00,45.0,41.1,30.38,NNE,25,2.0,8.0,86,0.00,,,0.00,Wunderground v.1.15,2013-11-29 18:13:00,
2013-11-29 18:19:00,45.0,41.1,30.38,ENE,58,3.0,8.0,86,0.00,,,0.00,Wunderground v.1.15,2013-11-29 18:19:00,
2013-11-29 18:24:00,45.0,40.8,30.38,SE,124,3.0,8.0,85,0.00,,,0.00,Wunderground v.1.15,2013-11-29 18:24:00,
2013-11-29 18:30:00,44.9,40.7,30.38,ENE,61,2.0,2.0,85,0.00,,,0.00,Wunderground v.1.15,2013-11-29 18:30:00,
2013-11-29 18:36:00,44.8,40.6,30.39,ESE,102,1.0,8.0,85,0.00,,,0.00,Wunderground v.1.15,2013-11-29 18:36:00,
2013-11-29 18:42:00,44.8,40.6,30.40,NNE,31,2.0,8.0,85,0.00,,,0.00,Wunderground v.1.15,2013-11-29 18:42:00,
2013-11-29 18:48:00,44.9,40.7,30.39,East,82,3.0,8.0,85,0.00,,,0.00,Wunderground v.1.15,2013-11-29 18:48:00,
2013-11-29 18:54:00,45.0,40.8,30.39,NNW,336,3.0,8.0,85,0.00,,,0.00,Wunderground v.1.15,2013-11-29 18:54:00,
2013-11-29 18:59:00,45.1,40.9,30.39,ESE,115,2.0,8.0,85,0.00,,,0.00,Wunderground v.1.15,2013-11-29 18:59:00,
2013-11-29 19:05:00,45.1,40.9,30.39,ESE,112,3.0,8.0,85,0.00,,,0.00,Wunderground v.1.15,2013-11-29 19:05:00,
2013-11-29 19:11:00,44.9,41.0,30.39,South,184,3.0,8.0,86,0.00,,,0.00,Wunderground v.1.15,2013-11-29 19:11:00,
2013-11-29 19:16:00,44.8,40.9,30.39,East,92,2.0,8.0,86,0.00,,,0.00,Wunderground v.1.15,2013-11-29 19:16:00,
2013-11-29 19:21:00,44.7,41.1,30.38,East,81,3.0,8.0,87,0.00,,,0.00,Wunderground v.1.15,2013-11-29 19:21:00,
2013-11-29 19:27:00,44.7,41.1,30.38,ENE,62,3.0,8.0,87,0.00,,,0.00,Wunderground v.1.15,2013-11-29 19:27:00,
2013-11-29 19:32:00,44.8,41.2,30.39,ENE,70,3.0,8.0,87,0.00,,,0.00,Wunderground v.1.15,2013-11-29 19:32:00,
2013-11-29 19:38:00,44.8,41.2,30.39,East,90,3.0,8.0,87,0.00,,,0.00,Wunderground v.1.15,2013-11-29 19:38:00,
2013-11-29 19:44:00,44.8,40.9,30.39,SSE,153,2.0,8.0,86,0.00,,,0.00,Wunderground v.1.15,2013-11-29 19:44:00,
2013-11-29 19:54:00,44.7,41.1,30.39,ESE,113,2.0,8.0,87,0.00,,,0.00,Wunderground v.1.15,2013-11-29 19:54:00,
2013-11-29 20:00:00,44.7,41.1,30.40,East,88,2.0,8.0,87,0.00,,,0.00,Wunderground v.1.15,2013-11-29 20:00:00,
2013-11-29 20:06:00,44.7,41.1,30.40,ESE,108,2.0,8.0,87,0.00,,,0.00,Wunderground v.1.15,2013-11-29 20:06:00,
2013-11-29 20:11:00,44.6,41.0,30.39,ESE,114,1.0,8.0,87,0.00,,,0.00,Wunderground v.1.15,2013-11-29 20:11:00,
2013-11-29 20:17:00,44.6,41.0,30.39,SE,136,1.0,8.0,87,0.00,,,0.00,Wunderground v.1.15,2013-11-29 20:17:00,
2013-11-29 20:23:00,44.5,40.9,30.39,SE,128,2.0,8.0,87,0.00,,,0.00,Wunderground v.1.15,2013-11-29 20:23:00,
2013-11-29 20:29:00,44.3,40.7,30.39,East,95,1.0,8.0,87,0.00,,,0.00,Wunderground v.1.15,2013-11-29 20:29:00,
2013-11-29 20:35:00,44.1,40.8,30.39,East,92,2.0,8.0,88,0.00,,,0.00,Wunderground v.1.15,2013-11-29 20:35:00,
2013-11-29 20:40:00,43.9,40.6,30.39,NE,37,2.0,8.0,88,0.00,,,0.00,Wunderground v.1.15,2013-11-29 20:40:00,
2013-11-29 20:45:00,43.9,40.6,30.39,ENE,76,2.0,8.0,88,0.00,,,0.00,Wunderground v.1.15,2013-11-29 20:45:00,
2013-11-29 20:50:00,43.9,40.6,30.39,ESE,116,2.0,8.0,88,0.00,,,0.00,Wunderground v.1.15,2013-11-29 20:50:00,
2013-11-29 20:56:00,44.0,40.7,30.40,ENE,62,3.0,8.0,88,0.00,,,0.00,Wunderground v.1.15,2013-11-29 20:56:00,
2013-11-29 21:02:00,44.3,41.0,30.40,East,96,3.0,8.0,88,0.00,,,0.00,Wunderground v.1.15,2013-11-29 21:02:00,
2013-11-29 21:08:00,44.4,40.8,30.39,ESE,110,3.0,8.0,87,0.00,,,0.00,Wunderground v.1.15,2013-11-29 21:08:00,
2013-11-29 21:17:00,44.4,41.1,30.40,NE,54,3.0,8.0,88,0.00,,,0.00,Wunderground v.1.15,2013-11-29 21:17:00,
2013-11-29 21:23:00,44.4,41.1,30.40,ESE,102,3.0,8.0,88,0.00,,,0.00,Wunderground v.1.15,2013-11-29 21:23:00,
2013-11-29 21:28:00,44.3,41.0,30.40,ENE,70,2.0,8.0,88,0.00,,,0.00,Wunderground v.1.15,2013-11-29 21:28:00,
2013-11-29 21:33:00,44.2,40.9,30.40,ESE,113,2.0,8.0,88,0.00,,,0.00,Wunderground v.1.15,2013-11-29 21:33:00,
2013-11-29 21:39:00,44.1,41.1,30.40,SE,129,1.0,8.0,89,0.00,,,0.00,Wunderground v.1.15,2013-11-29 21:39:00,
2013-11-29 21:44:00,43.9,40.9,30.40,ENE,74,2.0,8.0,89,0.00,,,0.00,Wunderground v.1.15,2013-11-29 21:44:00,
2013-11-29 21:50:00,43.8,40.8,30.40,East,91,2.0,2.0,89,0.00,,,0.00,Wunderground v.1.15,2013-11-29 21:50:00,
2013-11-29 21:56:00,43.7,40.7,30.40,SE,135,2.0,8.0,89,0.00,,,0.00,Wunderground v.1.15,2013-11-29 21:56:00,
2013-11-29 22:02:00,43.6,40.6,30.40,East,84,2.0,8.0,89,0.00,,,0.00,Wunderground v.1.15,2013-11-29 22:02:00,
2013-11-29 22:10:00,43.8,41.1,30.41,SE,128,2.0,2.0,90,0.00,,,0.00,Wunderground v.1.15,2013-11-29 22:10:00,
2013-11-29 22:16:00,44.0,41.3,30.41,East,82,2.0,8.0,90,0.00,,,0.00,Wunderground v.1.15,2013-11-29 22:16:00,
2013-11-29 22:21:00,44.1,41.1,30.41,East,90,1.0,8.0,89,0.00,,,0.00,Wunderground v.1.15,2013-11-29 22:21:00,
2013-11-29 22:28:00,44.2,41.2,30.40,ESE,107,2.0,8.0,89,0.00,,,0.00,Wunderground v.1.15,2013-11-29 22:28:00,
2013-11-29 23:48:00,42.9,40.5,30.43,ESE,120,1.0,8.0,91,0.00,,,0.00,Wunderground v.1.15,2013-11-29 23:48:00,
2013-11-29 23:54:00,43.0,40.6,30.42,ENE,62,2.0,8.0,91,0.00,,,0.00,Wunderground v.1.15,2013-11-29 23:54:00,